Location: Hermaringen
(48.5952°N, 10.2585°E)
Time: 21:34:04
(UTC+00:00)

Cosmos 2344 - Pass Details

Date: 18 November 2025
Orbit: 1197 x 3045 km, 63.3° (Epoch: 10 December)

Event Time Altitude Azimuth Distance (km) Brightness Sun altitude
Rises 18:22:56 0° 317° (NW) 4,214 6.9 -27.3°
Reaches altitude 10° 18:25:26 10° 317° (NW) 3,332 6.3 -27.8°
Maximum altitude 18:33:24 84° 232° (SW) 1,566 3.9 -29.1°
Enters shadow 18:38:35 34° 147° (SSE) 2,623 4.8 -29.9°
